User: anonymous   Login
Location: Unspecified
(0.0000°N, 0.0000°E)
Time: 15:30:37
(UTC+00:00)
Language:

PAYLOAD E - Orbit

View from above orbital plane
View from above orbital plane
View from above satellite
View from above satellite

Ground track
Ground track

The orbit data is extracted from the following two-line orbital elements,

1 27059U 01058E   18267.66338344 +.00000014 +00000-0 +19333-4 0  9996
2 27059 082.5405 220.0255 0002197 114.3094 333.0951 12.61484389770910
Epoch (UTC): 24 September 2018 15:55:16
Eccentricity: 0.0002197
inclination: 82.5405°
perigee height: 1415 km
apogee height: 1418 km
right ascension of ascending node: 220.0255°
argument of perigee: 114.3094°
revolutions per day: 12.61484389
mean anomaly at epoch: 333.0951°
orbit number at epoch: 77091

The dashed part of the orbit path shows where the satellite is in the earth's shadow,  

DLR